Flag for Madagascar Weather past 2 weeks in Antananarivo, Madagascar

Now
50 °F

Passing clouds.


Feels Like: 50 °F
Forecast: 49 / 75 °F
Wind: 1 mph from Southeast

Location: Antananarivo / Ivato

Current Time: Sep 19, 2014 at 2:59:09 AM

Latest Report: Sep 19, 2014 at 2:30 AM


Visibility: N/A

Pressure: 30.27 "Hg

Humidity: 100%

Dew point: 50 °F

Location of AntananarivoLocation

Historic Weather in Antananarivo — Graph

°F

Antananarivo temperature yesterday

Maximum temperature yesterday: 73 °F (at 1:30 PM)
Minimum temperature yesterday: 54 °F (at 12:00 AM)
Average temperature yesterday: 62 °F

Past Weeks' High & Low Weather Summary

 TemperatureHumidityPressure
High84 °F (Sep 13, 1:30 PM)100% (Sep 4, 2:30 AM)30.42 "Hg (Sep 4, 2:30 AM)
Low43 °F (Sep 14, 5:00 AM)16% (Sep 14, 12:00 PM)30.15 "Hg (Sep 17, 1:30 PM)
Average61 °F82%30.31 "Hg
* Reported Sep 4 1:00 AM — Sep 19 1:30 AM, Antananarivo, Weather by CustomWeather, © 2014

Note: Actual official high and low records may vary slightly from our data, if they occured in-between our weather recording intervals... More about our weather records

Advertising

Antananarivo weather history for previous 24 hours

 ConditionsComfort  
Time TempWeatherWind HumidityBarometerVisibility
1:30 AM
Sep 19
52 °FPassing clouds.5 mph100%30.27 "HgN/A
1:00 AM52 °FPassing clouds.5 mph100%30.30 "HgN/A
12:30 AM54 °FPassing clouds.6 mph94%30.30 "HgN/A
12:00 AM54 °FPassing clouds.5 mph100%30.30 "HgN/A
11:30 PM
Sep 18
54 °FPassing clouds.7 mph100%30.30 "HgN/A
11:00 PM55 °FPassing clouds.8 mph100%30.30 "HgN/A
10:30 PM55 °FPassing clouds.7 mph100%30.30 "HgN/A
10:00 PM57 °FPassing clouds.6 mph94%30.30 "HgN/A
9:30 PM55 °FPassing clouds.6 mph100%30.30 "HgN/A
9:00 PM57 °FPassing clouds.9 mph100%30.30 "HgN/A
8:30 PM57 °FPassing clouds.10 mph94%30.30 "HgN/A
8:00 PM59 °FPassing clouds.13 mph88%30.30 "HgN/A
7:30 PM61 °FPassing clouds.8 mph77%30.30 "HgN/A
7:00 PM61 °FPassing clouds.8 mph77%30.27 "HgN/A
6:30 PM61 °FPassing clouds.7 mph77%30.27 "HgN/A
6:00 PM64 °FPassing clouds.8 mph68%30.24 "HgN/A
5:30 PM66 °FPassing clouds.10 mph64%30.24 "HgN/A
5:00 PM70 °FPassing clouds.10 mph57%30.24 "HgN/A
4:30 PM70 °FPassing clouds.10 mph53%30.21 "HgN/A
4:00 PM72 °FPassing clouds.12 mph53%30.21 "HgN/A
3:30 PM72 °FPassing clouds.13 mph53%30.21 "HgN/A
3:00 PM73 °FPassing clouds.14 mph57%30.21 "HgN/A
2:30 PM73 °FPassing clouds.13 mph53%30.21 "HgN/A
2:00 PM73 °FPassing clouds.12 mph57%30.21 "HgN/A
1:30 PM73 °FScattered clouds.12 mph57%30.21 "HgN/A
1:00 PM72 °FScattered clouds.13 mph61%30.21 "HgN/A
12:30 PM72 °FScattered clouds.13 mph61%30.21 "HgN/A
12:00 PM72 °FScattered clouds.10 mph61%30.24 "HgN/A
11:30 AM72 °FScattered clouds.12 mph61%30.24 "HgN/A
11:00 AM70 °FScattered clouds.9 mph64%30.24 "HgN/A
10:30 AM68 °FScattered clouds.10 mph64%30.24 "HgN/A
10:00 AM68 °FScattered clouds.8 mph69%30.27 "HgN/A
9:30 AM64 °FPartly sunny.9 mph78%30.27 "HgN/A
9:00 AM64 °FPartly sunny.8 mph78%30.27 "HgN/A
8:30 AM63 °FPartly sunny.9 mph88%30.27 "HgN/A
8:00 AM59 °FPartly sunny.9 mph94%30.27 "HgN/A
7:30 AM59 °FPartly sunny.7 mph94%30.24 "HgN/A
7:00 AM59 °FPartly sunny.8 mph94%30.24 "Hg6 mi
6:30 AM57 °FPartly sunny.7 mph100%30.24 "Hg5 mi
6:00 AM57 °FPartly sunny.6 mph100%30.24 "HgN/A
5:30 AM55 °FPassing clouds.5 mph100%30.21 "HgN/A
5:00 AM55 °FPassing clouds.2 mph100%30.21 "HgN/A
4:30 AM55 °FPassing clouds.3 mph100%30.21 "HgN/A
4:00 AM55 °FPassing clouds.1 mph100%30.21 "HgN/A
3:30 AM55 °FPassing clouds.3 mph100%30.18 "HgN/A
3:00 AM54 °FPassing clouds.2 mph100%30.21 "HgN/A
2:00 AM54 °FPassing clouds.3 mph100%30.21 "HgN/A
Weather by CustomWeather, © 2014

See weather overviewHow to use our weather pages